[[{"header":{"parameterUnit":"m.s-1","parameterCategory":1,"la1":30.2991,"la2":30.254,"lo1":-89.0895,"lo2":-89.0444,"dy":0.0017,"dx":0.0017,"nx":28,"ny":28,"refTime":"2025-07-17T03:00:00:Z","depth":0,"parameterNumber":2,"parameterNumberName":"U-component_of_WINDS"},"data":[0,0,0,0,0,0,0,0,0,0,0,0,0,0,0,0,0,0,0,0,0,0,0,0,0,0,0,0,0,0,0,0,0,0,0,0,0,0,0,0,0,0,0,0,0,0,0,0,0,0,0,0,0,0,0,0,0,0,-3.7068,-3.7071,0,-3.7384,-3.7388,-3.7391,-3.7546,-3.7546,-3.7546,-3.7546,-3.7871,-3.7879,-3.7888,0,0,0,0,0,0,0,0,0,0,0,0,0,-3.6597,-3.6605,-3.7068,-3.7072,-3.7076,-3.7384,-3.7388,-3.7392,-3.7547,-3.7546,-3.7546,-3.7546,-3.7868,-3.7878,-3.7889,0,0,0,0,0,0,0,0,0,0,0,0,0,-3.6846,-3.6608,-3.7067,-3.719,-3.7204,-3.7383,-3.7388,-3.7394,-3.7547,-3.7546,-3.7546,-3.7546,-3.7865,-3.7877,-3.789,-3.7971,0,0,-3.793,-3.7936,0,0,0,0,0,0,0,0,-3.6832,-3.6863,-3.7168,-3.7182,-3.7198,-3.7426,-3.7341,-3.7587,-3.7547,-3.7416,-3.7546,-3.7546,-3.7723,-3.7748,-3.7807,-3.7987,-3.8,-3.7931,-3.7939,-3.7944,-3.7948,0,0,0,0,0,0,0,-3.6814,-3.6851,-3.7193,-3.7172,-3.719,-3.7229,-3.7264,-3.7389,-3.7566,-3.7428,-3.744,-3.7475,-3.7731,-3.7794,-3.7816,-3.8005,-3.7931,-3.7942,-3.795,-3.7955,-3.8268,-3.8268,0,0,0,0,0,0,-3.6777,-3.6835,-3.7183,-3.7203,-3.7011,-3.7237,-3.7277,-3.7353,-3.7565,-3.7597,-3.7475,-3.7481,-3.7772,-3.78,-3.7828,-3.7938,-3.7944,-3.7957,-3.7964,-3.8267,-3.8268,-3.8268,0,0,0,0,0,0,-3.6767,-3.6807,-3.717,-3.7022,-3.7072,-3.7246,-3.7329,-3.7359,-3.7422,-3.7601,-3.7633,-3.7507,-3.7773,-3.7809,-3.7935,-3.7951,-3.7962,-3.7974,-3.8267,-3.8267,-3.8268,-3.8156,0,0,0,0,0,0,-3.6752,-3.6802,-3.6835,-3.7022,-3.7079,-3.7271,-3.733,-3.7365,-3.7444,-3.7455,-3.7639,-3.767,-3.7776,-3.7914,-3.7947,-3.7969,-3.7984,-3.8266,-3.8267,-3.8268,-3.816,-3.8153,-3.8148,0,0,0,0,0,-3.6735,-3.6791,-3.6836,-3.6877,-3.7123,-3.7272,-3.7305,-3.7426,-3.7445,-3.7479,-3.7594,-3.7664,-3.7943,-3.7926,-3.7964,-3.799,-3.8265,-3.8267,-3.8268,-3.8162,-3.8155,-3.8148,0,0,0,0,0,0,-3.6601,-3.6818,-3.687,-3.6988,-3.711,-3.7298,-3.7345,-3.7414,-3.7534,-3.7539,-3.7684,-3.7724,-3.7836,-3.7926,-3.7902,-3.808,-3.8111,-3.812,-3.8018,-3.8012,-3.8006,-3.7983,-3.7995,0,0,0,0,0,-3.6585,-3.6688,-3.6872,-3.6958,-3.7017,-3.7169,-3.7239,-3.7321,-3.7454,-3.7507,-3.7631,-3.7757,-3.7874,-3.7948,-3.8065,-3.8173,-3.8215,-3.8209,-3.8203,-3.8198,-3.8204,-3.8269,-3.8268,-3.8272,-3.8272,-3.8272,0,0,-3.6554,-3.6685,-3.6741,-3.6934,-3.7039,-3.7142,-3.7212,-3.7318,-3.7397,-3.7523,-3.7649,-3.7744,-3.7895,-3.8011,-3.8069,-3.809,-3.8212,-3.8199,-3.8194,-3.8204,-3.827,-3.8269,-3.8269,-3.8273,-3.8273,-3.8272,0,0,-3.655,-3.6659,-3.6743,-3.6846,-3.7003,-3.7105,-3.7124,-3.7302,-3.737,-3.7498,-3.7595,-3.769,-3.7888,-3.7991,-3.807,-3.8103,-3.8172,-3.8137,-3.8107,-3.8168,-3.8168,-3.8169,-3.8181,-3.8184,-3.8142,-3.8142,-3.8142,0,-3.6491,-3.665,-3.6777,-3.6878,-3.696,-3.7079,-3.7165,-3.7259,-3.7447,-3.7501,-3.7521,-3.7771,-3.7881,-3.8024,-3.8032,-3.8091,-3.8119,-3.8117,-3.8158,-3.8159,-3.8162,-3.8176,-3.818,-3.8137,-3.8138,-3.8138,-3.8139,0,-3.657,-3.6679,-3.6728,-3.6905,-3.6993,-3.7086,-3.7227,-3.73,-3.7375,-3.7473,-3.7603,-3.7738,-3.7885,-3.7925,-3.7999,-3.8078,-3.8086,-3.813,-3.8164,-3.8154,-3.8169,-3.8176,-3.8129,-3.8131,-3.8133,-3.8134,0,0,-3.6492,-3.6738,-3.6754,-3.6836,-3.7018,-3.7104,-3.7202,-3.7345,-3.7406,-3.753,-3.7617,-3.7781,-3.7822,-3.7911,-3.7997,-3.805,-3.8069,-3.8088,-3.8094,-3.8081,-3.8166,-3.8132,-3.8136,-3.8115,-3.8117,-3.8118,-3.8153,0,-3.6514,-3.6695,-3.6811,-3.6946,-3.7048,-3.7162,-3.7248,-3.7368,-3.7463,-3.7563,-3.7669,-3.7783,-3.7828,-3.7883,-3.794,-3.8054,-3.8088,-3.8053,-3.8198,-3.8201,-3.8157,-3.8144,-3.811,-3.8137,-3.816,-3.8161,-3.8162,0,-3.6563,-3.6685,-3.6829,-3.7,-3.7047,-3.7121,-3.7262,-3.7356,-3.7496,-3.7561,-3.7659,-3.7747,-3.7855,-3.7879,-3.8031,-3.8004,-3.807,-3.8135,-3.8139,-3.8158,-3.8181,-3.8164,-3.8148,-3.8152,-3.8173,-3.8172,-3.8171,0,-3.6492,-3.6692,-3.6804,-3.6871,-3.7072,-3.7122,-3.7208,-3.7347,-3.7426,-3.7548,-3.7601,-3.7734,-3.7808,-3.7909,-3.8031,-3.8037,-3.817,-3.8204,-3.8228,-3.8225,-3.8252,-3.8249,-3.8247,-3.8292,-3.8292,-3.8292,-3.8292,0,-3.6505,-3.6589,-3.6775,-3.6844,-3.6942,-3.7075,-3.7168,-3.7263,-3.7386,-3.7476,-3.7582,-3.7665,-3.7819,-3.7921,-3.8016,-3.8128,-3.816,-3.8216,-3.8241,-3.8207,-3.82,-3.8253,-3.8255,-3.8293,-3.8293,-3.8293,-3.8293,0,-3.6442,-3.657,-3.67,-3.688,-3.6927,-3.6991,-3.7145,-3.7217,-3.7316,-3.7429,-3.7463,-3.762,-3.7745,-3.7876,-3.8045,-3.811,-3.8217,-3.8251,-3.817,-3.8184,-3.8201,-3.8198,-3.8235,-3.8247,-3.8281,-3.828,-3.828,0,-3.6442,-3.6509,-3.6696,-3.6763,-3.6847,-3.6955,-3.7035,-3.7168,-3.7248,-3.7411,-3.7463,-3.7596,-3.7709,-3.7903,-3.8033,-3.8163,-3.8201,-3.8205,-3.8222,-3.8186,-3.8203,-3.8197,-3.8205,-3.82,-3.8198,-3.8198,-3.8197,0,-3.6428,-3.6488,-3.66,-3.6733,-3.6826,-3.6938,-3.7054,-3.7104,-3.726,-3.7344,-3.7472,-3.756,-3.7733,-3.7863,-3.8009,-3.8099,-3.8174,-3.819,-3.8203,-3.817,-3.8121,-3.8149,-3.8156,-3.8189,-3.819,-3.8191,-3.8191,-3.8191,-3.6398,-3.6463,-3.6604,-3.6725,-3.6826,-3.6932,-3.7008,-3.7117,-3.7227,-3.7377,-3.745,-3.7578,-3.7716,-3.792,-3.8007,-3.811,-3.8132,-3.815,-3.8155,-3.8158,-3.815,-3.8103,-3.8137,-3.8138,-3.8138,-3.8138,-3.8139,0,-3.639,-3.6487,-3.6596,-3.6755,-3.685,-3.6912,-3.7043,-3.7119,-3.723,-3.7352,-3.7461,-3.7609,-3.7736,-3.7875,-3.8011,-3.8067,-3.8105,-3.8098,-3.8096,-3.8115,-3.8122,-3.8098,-3.8065,-3.8065,-3.8065,-3.8065,-3.8065,-3.8065,-3.6398,-3.6511,-3.6587,-3.6752,-3.6849,-3.6975,-3.7045,-3.7143,-3.7241,-3.7401,-3.7507,-3.7596,-3.7726,-3.7872,-3.7991,-3.8029,-3.8074,-3.8058,-3.8105,-3.8109,-3.8115,-3.812,-3.8098,-3.8066,-3.8066,-3.8091,-3.8091,-3.8091]},{"header":{"parameterUnit":"m.s-1","parameterCategory":1,"la1":30.2991,"la2":30.254,"lo1":-89.0895,"lo2":-89.0444,"dy":0.0017,"dx":0.0017,"nx":28,"ny":28,"refTime":"2025-07-17T03:00:00:Z","depth":0,"parameterNumber":3,"parameterNumberName":"V-component_of_WINDS"},"data":[0,0,0,0,0,0,0,0,0,0,0,0,0,0,0,0,0,0,0,0,0,0,0,0,0,0,0,0,0,0,0,0,0,0,0,0,0,0,0,0,0,0,0,0,0,0,0,0,0,0,0,0,0,0,0,0,0,0,-0.6243,-0.6237,0,-0.5659,-0.5652,-0.5646,-0.5322,-0.5322,-0.5321,-0.532,-0.4705,-0.469,-0.4674,0,0,0,0,0,0,0,0,0,0,0,0,0,-0.7062,-0.7049,-0.6244,-0.6237,-0.6229,-0.566,-0.5652,-0.5644,-0.5323,-0.5322,-0.532,-0.5319,-0.471,-0.4692,-0.4673,0,0,0,0,0,0,0,0,0,0,0,0,0,-0.6615,-0.7044,-0.6245,-0.6001,-0.5973,-0.5662,-0.5652,-0.5642,-0.5323,-0.5321,-0.532,-0.5319,-0.4716,-0.4693,-0.467,-0.4552,0,0,-0.4599,-0.4589,0,0,0,0,0,0,0,0,-0.6641,-0.6585,-0.6044,-0.6017,-0.5986,-0.5563,-0.5714,-0.5276,-0.5323,-0.5569,-0.532,-0.5318,-0.499,-0.4944,-0.4837,-0.4523,-0.4497,-0.4597,-0.4583,-0.4573,-0.4566,0,0,0,0,0,0,0,-0.6672,-0.6608,-0.6012,-0.6036,-0.6001,-0.5914,-0.5849,-0.563,-0.5293,-0.5548,-0.5523,-0.5459,-0.4974,-0.486,-0.482,-0.4488,-0.4597,-0.4577,-0.4562,-0.4553,-0.404,-0.404,0,0,0,0,0,0,-0.6745,-0.6637,-0.603,-0.5994,-0.6317,-0.59,-0.5827,-0.5699,-0.5295,-0.5233,-0.5461,-0.5446,-0.4901,-0.4848,-0.4797,-0.4628,-0.4573,-0.4551,-0.4537,-0.4039,-0.404,-0.404,0,0,0,0,0,0,-0.6764,-0.6694,-0.6054,-0.6308,-0.622,-0.5888,-0.5746,-0.5689,-0.5575,-0.523,-0.5166,-0.5408,-0.4898,-0.483,-0.4615,-0.4602,-0.454,-0.4519,-0.4039,-0.4039,-0.404,-0.4293,0,0,0,0,0,0,-0.6789,-0.6703,-0.666,-0.631,-0.6208,-0.5889,-0.5746,-0.5678,-0.5537,-0.5513,-0.5163,-0.5104,-0.4891,-0.4652,-0.4592,-0.4569,-0.4501,-0.4038,-0.4039,-0.404,-0.4284,-0.4302,-0.4317,0,0,0,0,0,-0.6819,-0.6752,-0.6659,-0.6588,-0.6148,-0.5889,-0.583,-0.5592,-0.5538,-0.5488,-0.5265,-0.5115,-0.4614,-0.4632,-0.4562,-0.4532,-0.4038,-0.4039,-0.404,-0.4277,-0.4299,-0.4317,0,0,0,0,0,0,-0.7103,-0.6702,-0.6595,-0.6414,-0.6189,-0.5835,-0.5766,-0.5623,-0.5404,-0.539,-0.5097,-0.5021,-0.4833,-0.4659,-0.4688,-0.4393,-0.4309,-0.4296,-0.4513,-0.4531,-0.4548,-0.4593,-0.4481,0,0,0,0,0,-0.7147,-0.6976,-0.6631,-0.6504,-0.6397,-0.6102,-0.598,-0.5816,-0.5568,-0.547,-0.5231,-0.4992,-0.4779,-0.4645,-0.4431,-0.4257,-0.4172,-0.4201,-0.4218,-0.4233,-0.4225,-0.4114,-0.4121,-0.4043,-0.4043,-0.4043,0,0,-0.7231,-0.699,-0.6899,-0.6555,-0.6361,-0.6184,-0.6023,-0.5844,-0.5707,-0.544,-0.5224,-0.504,-0.4752,-0.4557,-0.4458,-0.4407,-0.4227,-0.4234,-0.4249,-0.4231,-0.4116,-0.4123,-0.413,-0.4043,-0.4043,-0.4043,0,0,-0.7294,-0.7098,-0.6969,-0.6778,-0.6488,-0.6291,-0.6261,-0.5927,-0.5797,-0.5576,-0.537,-0.52,-0.4842,-0.4644,-0.4497,-0.4482,-0.4333,-0.4419,-0.4506,-0.4401,-0.4408,-0.4412,-0.4402,-0.4403,-0.4412,-0.4413,-0.4413,0,-0.7435,-0.7167,-0.6919,-0.6751,-0.6602,-0.6357,-0.6219,-0.6044,-0.5698,-0.5598,-0.5546,-0.5089,-0.4878,-0.463,-0.4627,-0.4517,-0.4467,-0.4458,-0.4428,-0.4429,-0.4429,-0.4417,-0.4414,-0.4425,-0.4424,-0.4423,-0.4421,0,-0.7351,-0.7167,-0.7097,-0.6774,-0.6616,-0.6465,-0.6188,-0.6057,-0.5906,-0.5713,-0.5486,-0.5225,-0.4951,-0.488,-0.4729,-0.4608,-0.4585,-0.4485,-0.4395,-0.4453,-0.4436,-0.443,-0.4443,-0.4438,-0.4435,-0.4432,0,0,-0.7579,-0.712,-0.7098,-0.6947,-0.6607,-0.6456,-0.629,-0.6027,-0.5919,-0.5686,-0.5535,-0.5236,-0.514,-0.4974,-0.4796,-0.4705,-0.4704,-0.4613,-0.4602,-0.4637,-0.4549,-0.4627,-0.4626,-0.4604,-0.4602,-0.46,-0.4572,0,-0.7593,-0.7291,-0.7061,-0.6842,-0.6666,-0.6428,-0.6281,-0.6053,-0.5867,-0.5684,-0.5474,-0.5267,-0.5158,-0.5055,-0.4954,-0.4727,-0.4682,-0.4725,-0.4454,-0.4448,-0.4534,-0.4617,-0.4699,-0.4686,-0.4565,-0.4563,-0.4562,0,-0.7569,-0.735,-0.7117,-0.6792,-0.6708,-0.6583,-0.6321,-0.6152,-0.5884,-0.5754,-0.5568,-0.5385,-0.519,-0.5119,-0.4843,-0.4878,-0.4752,-0.4623,-0.4616,-0.4581,-0.4509,-0.4582,-0.4676,-0.4674,-0.455,-0.4551,-0.4552,0,-0.7756,-0.7402,-0.7215,-0.7092,-0.671,-0.6626,-0.6461,-0.6193,-0.6049,-0.5817,-0.5718,-0.5466,-0.5327,-0.5132,-0.4883,-0.4855,-0.4631,-0.454,-0.4512,-0.4519,-0.4475,-0.4482,-0.455,-0.4399,-0.4399,-0.4399,-0.4399,0,-0.7794,-0.766,-0.7294,-0.718,-0.7019,-0.6752,-0.6598,-0.6411,-0.6175,-0.6013,-0.5789,-0.5641,-0.5322,-0.5133,-0.4935,-0.4734,-0.4673,-0.4558,-0.4507,-0.4577,-0.4592,-0.449,-0.4484,-0.4398,-0.4398,-0.4398,-0.4399,0,-0.7977,-0.7728,-0.7508,-0.7164,-0.7073,-0.697,-0.6671,-0.6546,-0.6347,-0.6146,-0.6082,-0.5767,-0.5533,-0.5265,-0.4941,-0.4807,-0.4619,-0.4546,-0.4713,-0.4683,-0.4669,-0.4674,-0.4673,-0.4657,-0.4522,-0.4524,-0.4525,0,-0.8018,-0.791,-0.7555,-0.7434,-0.7277,-0.7085,-0.6936,-0.6666,-0.652,-0.6205,-0.6117,-0.5867,-0.5652,-0.5287,-0.5024,-0.4773,-0.469,-0.4707,-0.465,-0.4724,-0.4686,-0.4696,-0.4681,-0.4723,-0.4726,-0.4728,-0.473,0,-0.8116,-0.7997,-0.7796,-0.7551,-0.7382,-0.7173,-0.6955,-0.6867,-0.6551,-0.6396,-0.6157,-0.5991,-0.5661,-0.5412,-0.5128,-0.4948,-0.4785,-0.475,-0.4729,-0.48,-0.49,-0.4843,-0.4754,-0.4751,-0.4749,-0.4748,-0.4746,-0.4746,-0.8225,-0.8117,-0.785,-0.7632,-0.744,-0.7241,-0.7106,-0.6891,-0.6689,-0.6403,-0.6253,-0.6015,-0.5742,-0.5345,-0.5171,-0.4974,-0.492,-0.4892,-0.4884,-0.4881,-0.4899,-0.4934,-0.4921,-0.492,-0.4919,-0.4919,-0.4918,0,-0.831,-0.8126,-0.7929,-0.7633,-0.7459,-0.7325,-0.7075,-0.6937,-0.6732,-0.6495,-0.629,-0.6011,-0.5767,-0.5486,-0.5222,-0.5119,-0.5037,-0.5059,-0.5063,-0.5023,-0.4964,-0.5008,-0.513,-0.513,-0.513,-0.513,-0.513,-0.513,-0.8333,-0.8141,-0.7991,-0.7698,-0.7511,-0.7282,-0.715,-0.6961,-0.6771,-0.6472,-0.6271,-0.6091,-0.5832,-0.5548,-0.5316,-0.5238,-0.515,-0.5195,-0.5095,-0.5045,-0.5028,-0.5011,-0.5049,-0.5179,-0.5179,-0.5168,-0.5168,-0.5168]}]]